Location: Newark
(45.0500°N, 41.9667°E)
Time: 03:22:46
(UTC+00:00)

Starlink (trailer) - Pass Details

Date: 31 July 2019
Orbit: 549 x 550 km, 53.0° (Epoch: 20 August)

Event Time Altitude Azimuth Distance (km) Brightness Sun altitude
Rises 18:45:04 0° 238° (WSW) 2,708 7.2 -17.8°
Reaches altitude 10° 18:47:18 10° 239° (WSW) 1,817 6.3 -18.0°
Maximum altitude 18:51:26 82° 327° (NNW) 559 3.6 -18.5°
Drops below altitude 10° 18:55:35 10° 56° (ENE) 1,826 6.2 -18.9°
Sets 18:57:50 0° 58° (ENE) 2,723 7.1 -19.1°
